Regional Weather Roundup
Issued by NWS

Home | Current Version | Previous Version | Graphics & Text | Print | Product List | Glossary On
Versions: 1 2 3 4 5 6 7 8 9 10 11 12 13 14 15 16 17 18 19 20 21 22 23 24 25 26 27 28 29 30 31 32 33 34 35 36 37 38 39 40 41 42 43 44 45 46 47 48 49 50
000
ASUS43 KLOT 200303
RWRIL

ILLINOIS REGIONAL WEATHER ROUNDUP
NATIONAL WEATHER SERVICE CHICAGO/ROMEOVILLE IL
900 PM CST THU JAN 19 2017

NOTE: "FAIR" INDICATES FEW OR NO CLOUDS BELOW 12,000 FEET WITH NO
SIGNIFICANT WEATHER AND/OR OBSTRUCTIONS TO VISIBILITY.

* THESE STATIONS ARE NOT UNDER NWS QUALITY CONTROL. THEY ALSO MAY NOT
  REPORT WEATHER SUCH AS PRECIPITATION OR FOG.

ILZ001-002-007-009-015-016-024-200400-
NORTHWEST ILLINOIS

CITY           SKY/WX    TMP DP  RH WIND       PRES   REMARKS
MOLINE         CLOUDY    38  36  92 E7        29.72F FOG     WCI  33
STERLING*      LGT RAIN  37  36  96 E10       29.75F FOG     WCI  30
SAVANNA*       DRIZZLE   37  37  97 E7        29.75F WCI  32
$$

ILZ003-004-008-010-011-017-018-200400-
NORTH CENTRAL ILLINOIS

CITY           SKY/WX    TMP DP  RH WIND       PRES   REMARKS
ROCKFORD       LGT RAIN  39  37  92 E3        29.79F FOG
FREEPORT*      RAIN      36  36  99 E8        29.77F VSB 1   WCI  29
ROCHELLE*      RAIN      37  36  98 E9        29.77F WCI  30
DE KALB*       CLOUDY    37  37  98 E6        29.78R FOG     WCI  33
$$

ILZ005-006-012>014-019>023-200400-
NORTHEAST ILLINOIS

CITY           SKY/WX    TMP DP  RH WIND       PRES   REMARKS
CHICAGO-OHARE  LGT RAIN  38  37  97 E7        29.79F FOG     WCI  33
CHICAGO-MIDWAY LGT RAIN  38  38 100 E7        29.79F FOG     WCI  33
AURORA         LGT RAIN  39  37  92 E10       29.75F FOG     WCI  32
LANSING*       RAIN      38  38 100 NE3       29.78F
JOLIET*        RAIN      40  39  98 E9        29.77F
WAUKEGAN       LGT RAIN  37  37 100 E7        29.79F FOG     WCI  32
DUPAGE AIRPORT LGT RAIN  38  35  89 E10       29.76F FOG     WCI  31
KANKAKEE*      RAIN      39  38  97 E5        29.77F
WHEELING       LGT RAIN  38  36  92 E5        29.80F FOG     WCI  34
MORRIS*        RAIN      39  38  94 E14       29.73F WCI  31
ROMEOVILLE*    RAIN      38  38 100 E10       29.77F WCI  31
NORTHERLY ISL    N/A     35  33  92 E5          N/A  WCI  31
$$

LMZ740>746-200400-
SOUTHERN LAKE MICHIGAN

STATION/POSITION SKY/WX   TEMP    WIND        PRES    VSBY  WAVE
                          AIR SEA DIR/SP/G                  HT/PER
                          (F)     (DEG/KT/KT) (MB)    (MI)  (FT/S)
HARRISON CRIB              37     100/ 13/ 13   N/A
BURNHAM HARBOR             35     100/  2/  6   N/A
CALUMET HARBOR             35      80/  8/ 11 1008.7F
BURNS HARBOR               39      90/  8/ 15 1010.2
MICHIGAN CITY              39      80/  7/  8   N/A
$$

ILZ025>027-034>036-040-047-049-050-058-095>099-200400-
WEST-CENTRAL ILLINOIS

CITY           SKY/WX    TMP DP  RH WIND       PRES   REMARKS
QUINCY         FOG       42  42 100 E6        29.66F VSB 1/2
GALESBURG*     CLOUDY    38  38 100 E5        29.70F FOG     WCI  35
MACOMB*        FOG       39  39 100 E5        29.72S VSB 1
JACKSONVILLE*  FOG       42  42 100 E8        29.66F VSB 3/4
PITTSFIELD*    FOG       44  44 100 NE5       29.67F VSB 1/4
$$

ILZ028>032-037-038-041>044-048-051>054-059>061-200400-
CENTRAL ILLINOIS

CITY           SKY/WX    TMP DP  RH WIND       PRES   REMARKS
BLOOMINGTON    LGT RAIN  40  39  97 E8        29.72F FOG
DECATUR        CLOUDY    42  42 100 E9        29.68F FOG
PEORIA         CLOUDY    40  40 100 E12       29.70F FOG
LACON*         DRIZZLE   38  38 100 E7        29.72F WCI  32
LINCOLN*       DRIZZLE   42  42 100 E7        29.69F
SPRINGFIELD    CLOUDY    44  42  93 E6        29.69F FOG
TAYLORVILLE    CLOUDY    42  42  99 E5        29.67F FOG
$$

ILZ033-039-045-046-055>057-062-063-200400-
EAST-CENTRAL ILLINOIS

CITY           SKY/WX    TMP DP  RH WIND       PRES   REMARKS
CHAMPAIGN      HVY RAIN  43  41  93 E12       29.70F FOG
MATTOON        RAIN      44  44 100 NE5       29.67F FOG
PARIS*         DRIZZLE   44  44 100 E8        29.71F
$$

ILZ079-100>102-200400-
SOUTHWEST ILLINOIS

CITY           SKY/WX    TMP DP  RH WIND       PRES   REMARKS
ALTON          FOG       45  45 100 NE6       29.66F VSB 1/4
BELLEVILLE     TSTM      46  46 100 NW3       29.64F VSB 1
CAHOKIA*       TSTM      47  46  97 CALM      29.67S FOG
SPARTA*        TSTM      46  46 100 CALM      29.68R
$$

ILZ064>066-069>071-074>076-080>082-084>086-088>090-092>094-200400-
SOUTH-CENTRAL ILLINOIS

CITY           SKY/WX    TMP DP  RH WIND       PRES   REMARKS
CARBONDALE     FOG       49  49 100 CALM      29.65F VSB 3/4
CAIRO*         RAIN      57  57 100 SW3       29.67R
EFFINGHAM*     LGT RAIN  47  47 100 E3        29.68F
MARION         CLOUDY    57  55  94 S5        29.65F
MT. VERNON     LGT RAIN  48  47  96 CALM      29.65F FOG
CENTRALIA*     CLOUDY    47  47 100 E3        29.65F THUNDER FOG
SALEM*         CLOUDY    48  46  95 E3        29.65F
$$

ILZ067-068-072-073-078-083-087-091-200400-
SOUTHEAST ILLINOIS

CITY           SKY/WX    TMP DP  RH WIND       PRES   REMARKS
LAWRENCEVILLE  RAIN      49  49 100 SE8       29.69F FOG
FLORA*         HVY RAIN  50  49  98 E6        29.66F
FAIRFIELD*     RAIN      49  49 100 CALM      29.65F
HARRISBURG*    RAIN      55  55 100 S6        29.66F
ROBINSON*      RAIN      47  47 100 E8        29.71F
CARMI*         RAIN      54  54 100 SE6       29.67S
$$

ABBREVIATIONS USED IN REMARKS
   TC - TEMPERATURE IN CELSIUS
  WCI - WIND CHILL INDEX
   HX - HEAT INDEX
  VSB - VISIBILITY
$$




USA.gov is the U.S. government's official web portal to all federal, state and local government web resources and services.